Weather History for KCDD - July, 2013

Change the Weather History Date:

Monday, July 1, 2013

  Actual Average Record
Temperature  
Mean Temperature 64 °F -  
Max Temperature 82 °F 73 °F 93 °F (2002)
Min Temperature 46 °F 51 °F 42 °F (2004)
Degree Days  
Heating Degree Days 1    
Growing Degree Days 14 (Base 50)    
Moisture  
Dew Point 52 °F    
Average Humidity 67    
Maximum Humidity 94    
Minimum Humidity 26    
Precipitation  
Precipitation 0.00 in - - ()
Sea Level Pressure  
Sea Level Pressure 30.22 in    
Wind  
Wind Speed 1 mph (North)    
Max Wind Speed 6 mph    
Max Gust Speed -    
Visibility 8 miles    
Events      
Averages and records for this station are not official NWS values.
T = Trace of Precipitation, MM = Missing Value Source: NWS Daily Summary

Daily Weather History Graph

Daily Weather History Graph

Search for Another Location

Airport or City:

Trip Planner

Search our weather history database for the weather conditions in past years. The results will help you decide how hot, cold, wet, or windy it might be!

Date:

Astronomy

Jul. 01, 2013 Rise Set
Actual Time 5:13 AM CDT 9:14 PM CDT
Civil Twilight 4:32 AM CDT 9:55 PM CDT
Nautical Twilight 3:34 AM CDT 10:52 PM CDT
Astronomical Twilight 1:56 AM CDT 12:28 AM CDT
Moon 1:02 AM CDT (7/1) 3:13 PM CDT (7/1)
Length of Visible Light 17h 23m
Length of Day
16h 00m
Waning Crescent, 35% of the Moon is Illuminated
Jul 1
Waning Crescent
Jul 8
New
Jul 15
First Quarter
Jul 22
Full
Jul 29
Last Quarter

Hourly Weather History & Observations

Time (CDT) Temp. Dew Point Humidity Pressure Visibility Wind Dir Wind Speed Gust Speed Precip Events Conditions
12:12 AM 53.6 °F 50.0 °F 88% 30.17 in 5.0 mi Calm Calm - N/A   Clear
12:32 AM 53.6 °F 50.0 °F 88% 30.17 in 5.0 mi Calm Calm - N/A   Clear
12:52 AM 51.8 °F 48.2 °F 88% 30.17 in 5.0 mi Calm Calm - N/A   Scattered Clouds
1:12 AM 51.8 °F 48.2 °F 88% 30.18 in 5.0 mi Calm Calm - N/A   Scattered Clouds
1:32 AM 51.8 °F 48.2 °F 88% 30.19 in 4.0 mi Calm Calm - N/A   Clear
1:52 AM 51.8 °F 48.2 °F 88% 30.19 in 7.0 mi Calm Calm - N/A   Clear
2:12 AM 50.0 °F 46.4 °F 87% 30.20 in 7.0 mi Calm Calm - N/A   Clear
2:32 AM 48.2 °F 46.4 °F 93% 30.20 in 4.0 mi Calm Calm - N/A   Clear
2:52 AM 48.2 °F 46.4 °F 93% 30.20 in 5.0 mi Calm Calm - N/A   Clear
3:12 AM 48.2 °F 46.4 °F 93% 30.20 in 5.0 mi Calm Calm - N/A   Clear
3:32 AM 48.2 °F 46.4 °F 93% 30.20 in 5.0 mi Calm Calm - N/A   Clear
3:52 AM 46.4 °F 44.6 °F 93% 30.21 in 4.0 mi Calm Calm - N/A   Clear
4:12 AM 46.4 °F 44.6 °F 93% 30.21 in 2.5 mi Calm Calm - N/A   Clear
4:32 AM 46.4 °F 44.6 °F 93% 30.22 in 4.0 mi Calm Calm - N/A   Clear
4:52 AM 46.4 °F 44.6 °F 93% 30.22 in 4.0 mi Calm Calm - N/A   Clear
5:12 AM 46.4 °F 44.6 °F 93% 30.23 in 4.0 mi Calm Calm - N/A   Clear
5:32 AM 46.4 °F 44.6 °F 93% 30.23 in 5.0 mi Calm Calm - N/A   Clear
5:52 AM 46.4 °F 44.6 °F 93% 30.24 in 3.0 mi Calm Calm - N/A   Clear
6:12 AM 46.4 °F 44.6 °F 93% - 4.0 mi Calm Calm - N/A   Clear
6:32 AM 46.4 °F 44.6 °F 93% 30.25 in 3.0 mi Calm Calm - N/A   Clear
6:52 AM 50.0 °F 48.2 °F 94% 30.25 in 4.0 mi Calm Calm - N/A   Clear
7:12 AM 55.4 °F 53.6 °F 94% 30.25 in 7.0 mi Calm Calm - N/A   Clear
7:32 AM 59.0 °F 57.2 °F 94% 30.25 in 10.0 mi Calm Calm - N/A   Clear
7:52 AM 62.6 °F 60.8 °F 94% 30.26 in 10.0 mi Calm Calm - N/A   Clear
8:12 AM 64.4 °F 62.6 °F 94% 30.26 in 10.0 mi Calm Calm - N/A   Clear
8:32 AM 66.2 °F 62.6 °F 88% 30.26 in 10.0 mi Calm Calm - N/A   Clear
8:52 AM 68.0 °F 62.6 °F 83% 30.26 in 10.0 mi Calm Calm - N/A   Clear
9:12 AM 69.8 °F 62.6 °F 78% 30.27 in 10.0 mi Calm Calm - N/A   Clear
9:32 AM 71.6 °F 60.8 °F 69% 30.26 in 10.0 mi Calm Calm - N/A   Clear
9:52 AM 73.4 °F 64.4 °F 73% 30.26 in 10.0 mi Calm Calm - N/A   Clear
10:12 AM 73.4 °F 60.8 °F 65% 30.26 in 10.0 mi Calm Calm - N/A   Clear
10:32 AM 75.2 °F 71.6 °F 89% 30.26 in 10.0 mi WNW 3.5 mph - N/A   Clear
10:52 AM 75.2 °F 66.2 °F 73% 30.26 in 10.0 mi North 4.6 mph - N/A   Clear
11:12 AM 77.0 °F 64.4 °F 65% 30.26 in 10.0 mi NNW 4.6 mph - N/A   Clear
11:32 AM 77.0 °F 60.8 °F 57% 30.26 in 10.0 mi NNE 3.5 mph - N/A   Clear
11:52 AM 78.8 °F 59.0 °F 51% 30.25 in 10.0 mi NNW 3.5 mph - N/A   Clear
12:12 PM 78.8 °F 57.2 °F 47% 30.25 in 10.0 mi NNE 4.6 mph - N/A   Clear
12:32 PM 78.8 °F 55.4 °F 44% 30.25 in 10.0 mi North 4.6 mph - N/A   Clear
12:52 PM 78.8 °F 53.6 °F 42% 30.24 in 10.0 mi NNE 3.5 mph - N/A   Clear
1:12 PM 80.6 °F 51.8 °F 37% 30.24 in 10.0 mi North 4.6 mph - N/A   Clear
1:32 PM 80.6 °F 51.8 °F 37% 30.24 in 10.0 mi NNW 3.5 mph - N/A   Clear
1:52 PM 80.6 °F 51.8 °F 37% 30.24 in 10.0 mi Calm Calm - N/A   Clear
2:12 PM 80.6 °F 48.2 °F 32% 30.24 in 10.0 mi Calm Calm - N/A   Clear
2:32 PM 82.4 °F 50.0 °F 32% 30.23 in 10.0 mi Calm Calm - N/A   Clear
2:52 PM 82.4 °F 46.4 °F 28% 30.23 in 10.0 mi North 3.5 mph - N/A   Clear
3:11 PM 82.4 °F 48.2 °F 30% 30.22 in 10.0 mi North 3.5 mph - N/A   Clear
3:32 PM 82.4 °F 46.4 °F 28% 30.22 in 10.0 mi Calm Calm - N/A   Clear
3:52 PM 82.4 °F 48.2 °F 30% 30.22 in 10.0 mi Calm Calm - N/A   Clear
4:12 PM 82.4 °F 48.2 °F 30% 30.22 in 10.0 mi Calm Calm - N/A   Clear
4:32 PM 82.4 °F 48.2 °F 30% 30.21 in 10.0 mi NE 3.5 mph - N/A   Clear
4:52 PM 82.4 °F 48.2 °F 30% 30.21 in 10.0 mi Calm Calm - N/A   Clear
5:12 PM 82.4 °F 48.2 °F 30% 30.21 in 10.0 mi Calm Calm - N/A   Clear
5:32 PM 82.4 °F 44.6 °F 26% 30.21 in 10.0 mi Calm Calm - N/A   Clear
5:52 PM 82.4 °F 48.2 °F 30% 30.21 in 10.0 mi Calm Calm - N/A   Clear
6:11 PM 82.4 °F 46.4 °F 28% 30.20 in 10.0 mi North 5.8 mph - N/A   Clear
6:31 PM 80.6 °F 46.4 °F 30% 30.20 in 10.0 mi Calm Calm - N/A   Clear
6:52 PM 80.6 °F 46.4 °F 30% 30.20 in 10.0 mi North 3.5 mph - N/A   Clear
7:12 PM 80.6 °F 48.2 °F 32% 30.20 in 10.0 mi Calm Calm - N/A   Clear
7:32 PM 78.8 °F 51.8 °F 39% 30.19 in 10.0 mi Calm Calm - N/A   Clear
7:52 PM 75.2 °F 51.8 °F 44% 30.19 in 10.0 mi Calm Calm - N/A   Clear
8:12 PM 71.6 °F 51.8 °F 50% 30.19 in 10.0 mi Calm Calm - N/A   Clear
8:32 PM 66.2 °F 51.8 °F 60% 30.19 in 10.0 mi Calm Calm - N/A   Clear
8:52 PM 62.6 °F 51.8 °F 68% 30.19 in 10.0 mi Calm Calm - N/A   Clear
9:12 PM 60.8 °F 51.8 °F 72% 30.19 in 10.0 mi Calm Calm - N/A   Clear
9:31 PM 59.0 °F 53.6 °F 82% 30.20 in 10.0 mi Calm Calm - N/A   Clear
9:52 PM 57.2 °F 53.6 °F 88% 30.20 in 10.0 mi Calm Calm - N/A   Clear
10:12 PM 57.2 °F 53.6 °F 88% 30.21 in 10.0 mi Calm Calm - N/A   Clear
10:32 PM 57.2 °F 51.8 °F 82% 30.21 in 10.0 mi Calm Calm - N/A   Clear
10:52 PM 57.2 °F 53.6 °F 88% 30.21 in 10.0 mi SSE 3.5 mph - N/A   Clear
11:12 PM 59.0 °F 51.8 °F 77% 30.21 in 10.0 mi South 3.5 mph - N/A   Clear
11:32 PM 57.2 °F 51.8 °F 82% 30.21 in 10.0 mi South 3.5 mph - N/A   Clear
11:52 PM 57.2 °F 50.0 °F 77% 30.21 in 10.0 mi Calm Calm - N/A   Clear